QPF
0.00 0.00 0.01 0.01 0.00 0.00 0.00 0.01 0.00 0.00 0.00 0.00 0.00 0.00 0.01 0.01 0.01 0.01 0.02 0.02 0.03 0.03 0.03 0.02 0.02 0.01 0.01 0.01 0.00 0.00 0.00 0.00 0.00 0.00 0.00 0.01 0.01 0.01 0.01 0.00 0.00 0.01 0.02
0.00 0.00 0.01 0.00 0.00 0.00 0.00 0.01 0.00 0.00 0.00 0.00 0.00 0.00 0.01 0.01 0.01 0.02 0.02 0.03 0.03 0.03 0.03 0.02 0.02 0.01 0.01 0.01 0.00 0.00 0.00 0.00 0.00 0.00 0.00 0.00 0.01 0.01 0.01 0.01 0.01 0.02 0.02
0.00 0.00 0.00 0.00 0.01 0.01 0.00 0.00 0.00 0.00 0.00 0.00 0.01 0.01 0.01 0.01 0.02 0.02 0.03 0.03 0.03 0.03 0.03 0.03 0.03 0.01 0.01 0.01 0.00 0.00 0.00 0.00 0.00 0.00 0.00 0.00 0.01 0.01 0.01 0.01 0.01 0.02 0.02
0.00 0.00 0.00 0.00 0.00 0.00 0.00 0.00 0.00 0.00 0.00 0.01 0.01 0.01 0.01 0.02 0.02 0.03 0.02 0.03 0.03 0.03 0.03 0.02 0.01 0.01 0.01 0.00 0.00 0.00 0.01 0.01 0.01 0.00 0.00 0.00 0.00 0.01 0.01 0.01 0.01 0.01 0.01
0.00 0.00 0.00 0.00 0.00 0.00 0.00 0.00 0.00 0.00 0.00 0.01 0.01 0.01 0.01 0.01 0.02 0.03 0.02 0.02 0.02 0.02 0.03 0.01 0.00 0.01 0.00 0.00 0.00 0.00 0.00 0.00 0.00 0.00 0.00 0.00 0.00 0.01 0.00 0.01 0.00 0.00 0.00
0.00 0.00 0.00 0.00 0.00 0.00 0.00 0.00 0.00 0.00 0.00 0.00 0.01 0.01 0.01 0.01 0.01 0.01 0.01 0.00 0.01 0.01 0.01 0.00 0.00 0.00 0.00 0.00 0.00 0.00 0.00 0.00 0.00 0.00 0.00 0.00 0.00 0.00 0.00 0.00 0.00 0.00 0.00
0.00 0.00 0.01 0.01 0.00 0.00 0.00 0.00 0.00 0.00 0.00 0.01 0.01 0.01 0.01 0.01 0.00 0.00 0.00 0.00 0.01 0.00 0.00 0.00 0.00 0.00 0.00 0.00 0.00 0.00 0.00 0.00 0.00 0.00 0.00 0.00 0.00 0.00 0.00 0.00 0.00 0.00 0.00
0.00 0.01 0.01 0.01 0.01 0.00 0.00 0.00 0.00 0.00 0.01 0.01 0.01 0.01 0.01 0.00 0.00 0.00 0.00 0.01 0.00 0.00 0.00 0.00 0.00 0.00 0.00 0.00 0.00 0.00 0.00 0.00 0.00 0.00 0.00 0.00 0.00 0.00 0.00 0.00 0.00 0.00 0.00
0.01 0.01 0.01 0.01 0.01 0.00 0.00 0.00 0.00 0.00 0.01 0.01 0.01 0.00 0.00 0.00 0.00 0.00 0.00 0.00 0.00 0.00 0.00 0.00 0.00 0.00 0.00 0.00 0.00 0.00 0.00 0.00 0.00 0.00 0.00 0.00 0.00 0.00 0.00 0.00 0.00 0.00 0.00
0.02 0.01 0.02 0.01 0.01 0.01 0.01 0.01 0.00 0.00 0.01 0.00 0.00 0.00 0.00 0.00 0.00 0.00 0.00 0.00 0.00 0.00 0.00 0.00 0.00 0.00 0.00 0.00 0.00 0.00 0.00 0.00 0.00 0.00 0.00 0.00 0.00 0.00 0.00 0.00 0.00 0.00 0.00
0.04 0.02 0.01 0.01 0.01 0.01 0.01 0.01 0.01 0.01 0.00 0.00 0.00 0.00 0.00 0.00 0.00 0.00 0.00 0.00 0.00 0.00 0.00 0.00 0.00 0.00 0.00 0.00 0.00 0.00 0.00 0.00 0.00 0.00 0.00 0.00 0.00 0.00 0.00 0.00 0.00 0.00 0.00
0.06 0.04 0.02 0.01 0.01 0.01 0.01 0.01 0.01 0.01 0.00 0.00 0.00 0.00 0.00 0.00 0.00 0.00 0.00 0.00 0.00 0.00 0.00 0.00 0.00 0.00 0.00 0.00 0.00 0.00 0.00 0.00 0.00 0.00 0.00 0.00 0.00 0.00 0.00 0.00 0.00 0.00 0.00
0.05 0.05 0.04 0.02 0.01 0.01 0.01 0.01 0.01 0.00 0.00 0.00 0.00 0.00 0.00 0.00 0.00 0.00 0.00 0.00 0.00 0.00 0.00 0.00 0.00 0.00 0.00 0.00 0.00 0.00 0.00 0.00 0.00 0.00 0.00 0.00 0.00 0.00 0.00 0.00 0.00 0.00 0.00
0.08 0.07 0.07 0.05 0.03 0.01 0.01 0.00 0.00 0.00 0.00 0.00 0.00 0.00 0.00 0.00 0.00 0.00 0.00 0.00 0.00 0.00 0.00 0.00 0.00 0.00 0.00 0.00 0.00 0.00 0.00 0.00 0.00 0.00 0.00 0.00 0.00 0.00 0.00 0.00 0.00 0.00 0.00
0.11 0.10 0.10 0.08 0.06 0.03 0.02 0.01 0.01 0.00 0.00 0.00 0.00 0.00 0.00 0.00 0.00 0.00 0.00 0.00 0.00 0.00 0.00 0.00 0.00 0.00 0.00 0.00 0.00 0.00 0.00 0.00 0.00 0.00 0.00 0.00 0.00 0.00 0.00 0.00 0.00 0.00 0.00
0.17 0.15 0.14 0.12 0.09 0.06 0.04 0.03 0.01 0.01 0.01 0.00 0.01 0.01 0.00 0.00 0.00 0.00 0.00 0.00 0.00 0.00 0.00 0.00 0.00 0.00 0.00 0.00 0.00 0.00 0.00 0.00 0.00 0.00 0.00 0.00 0.00 0.00 0.00 0.00 0.00 0.00 0.00
0.18 0.19 0.19 0.17 0.15 0.11 0.08 0.07 0.04 0.03 0.02 0.01 0.01 0.01 0.00 0.00 0.00 0.00 0.00 0.00 0.00 0.00 0.00 0.00 0.00 0.00 0.00 0.00 0.00 0.00 0.00 0.00 0.00 0.00 0.00 0.00 0.00 0.00 0.00 0.00 0.00 0.01 0.00
0.20 0.19 0.20 0.23 0.21 0.18 0.16 0.13 0.09 0.05 0.04 0.03 0.02 0.01 0.00 0.00 0.00 0.00 0.00 0.00 0.00 0.00 0.00 0.00 0.00 0.00 0.00 0.00 0.00 0.00 0.00 0.00 0.00 0.00 0.00 0.00 0.00 0.00 0.00 0.00 0.00 0.00 0.01
0.18 0.22 0.19 0.20 0.22 0.24 0.22 0.20 0.16 0.12 0.09 0.07 0.06 0.03 0.01 0.01 0.00 0.01 0.01 0.00 0.00 0.00 0.00 0.00 0.00 0.00 0.00 0.00 0.00 0.00 0.00 0.00 0.00 0.00 0.00 0.00 0.00 0.00 0.00 0.00 0.00 0.00 0.00
0.15 0.22 0.22 0.22 0.25 0.28 0.29 0.30 0.27 0.21 0.14 0.09 0.08 0.05 0.04 0.03 0.03 0.02 0.02 0.01 0.01 0.01 0.00 0.00 0.00 0.00 0.00 0.00 0.00 0.00 0.00 0.00 0.00 0.00 0.00 0.00 0.00 0.00 0.00 0.00 0.00 0.00 0.00
0.13 0.18 0.23 0.21 0.20 0.22 0.25 0.24 0.22 0.20 0.15 0.11 0.10 0.08 0.05 0.04 0.03 0.02 0.02 0.02 0.01 0.01 0.00 0.00 0.00 0.00 0.00 0.00 0.00 0.00 0.00 0.00 0.00 0.00 0.00 0.00 0.00 0.00 0.00 0.00 0.00 0.00 0.00
0.12 0.16 0.18 0.18 0.19 0.18 0.19 0.20 0.21 0.23 0.24 0.21 0.18 0.13 0.08 0.05 0.03 0.03 0.03 0.02 0.01 0.00 0.00 0.00 0.00 0.01 0.01 0.01 0.01 0.01 0.00 0.00 0.00 0.00 0.00 0.00 0.00 0.00 0.00 0.00 0.00 0.00 0.00
0.08 0.11 0.12 0.15 0.17 0.17 0.17 0.20 0.21 0.22 0.22 0.19 0.16 0.14 0.11 0.09 0.08 0.06 0.05 0.03 0.02 0.01 0.01 0.01 0.01 0.01 0.01 0.01 0.01 0.02 0.01 0.00 0.00 0.00 0.00 0.00 0.00 0.00 0.00 0.00 0.00 0.00 0.00
0.06 0.08 0.09 0.11 0.11 0.12 0.13 0.15 0.15 0.14 0.13 0.11 0.11 0.10 0.11 0.12 0.12 0.10 0.08 0.06 0.04 0.03 0.02 0.02 0.02 0.01 0.01 0.01 0.01 0.02 0.02 0.02 0.01 0.01 0.00 0.00 0.00 0.00 0.00 0.00 0.00 0.00 0.00
0.05 0.06 0.08 0.08 0.08 0.08 0.11 0.14 0.18 0.17 0.13 0.12 0.13 0.14 0.13 0.12 0.12 0.11 0.08 0.06 0.05 0.04 0.04 0.03 0.03 0.03 0.03 0.02 0.03 0.03 0.03 0.03 0.03 0.03 0.01 0.00 0.00 0.00 0.00 0.01 0.01 0.01 0.01
0.04 0.04 0.06 0.08 0.08 0.09 0.10 0.12 0.13 0.14 0.14 0.13 0.13 0.14 0.13 0.11 0.10 0.10 0.08 0.07 0.06 0.05 0.05 0.05 0.05 0.06 0.06 0.06 0.06 0.06 0.05 0.05 0.04 0.05 0.04 0.02 0.02 0.02 0.02 0.02 0.02 0.02 0.02
MSLP
1012.24 1012.06 1012.05 1012.26 1012.65 1013.17 1013.74 1014.27 1014.69 1014.98 1015.12 1015.17 1015.18 1015.22 1015.32 1015.52 1015.78 1016.09 1016.40 1016.67 1016.89 1017.06 1017.20 1017.35 1017.52 1017.73 1017.97 1018.24 1018.49 1018.72 1018.88 1018.98 1019.03 1019.02 1019.00 1018.97 1018.95 1018.93 1018.91 1018.88 1018.84 1018.78 1018.71
1011.83 1011.78 1011.89 1012.19 1012.65 1013.21 1013.81 1014.37 1014.82 1015.13 1015.31 1015.40 1015.45 1015.53 1015.66 1015.87 1016.14 1016.45 1016.76 1017.04 1017.27 1017.45 1017.61 1017.76 1017.92 1018.11 1018.32 1018.55 1018.77 1018.96 1019.11 1019.21 1019.28 1019.31 1019.33 1019.35 1019.37 1019.38 1019.38 1019.36 1019.33 1019.28 1019.21
1011.37 1011.48 1011.71 1012.11 1012.64 1013.25 1013.89 1014.47 1014.95 1015.30 1015.52 1015.66 1015.76 1015.86 1016.01 1016.23 1016.49 1016.79 1017.08 1017.35 1017.59 1017.78 1017.95 1018.11 1018.28 1018.46 1018.66 1018.86 1019.05 1019.22 1019.37 1019.48 1019.57 1019.65 1019.72 1019.77 1019.82 1019.86 1019.87 1019.86 1019.83 1019.78 1019.73
1010.98 1011.23 1011.60 1012.09 1012.68 1013.33 1013.98 1014.58 1015.08 1015.46 1015.72 1015.91 1016.05 1016.19 1016.35 1016.56 1016.81 1017.08 1017.35 1017.61 1017.84 1018.04 1018.23 1018.42 1018.61 1018.80 1018.99 1019.18 1019.36 1019.53 1019.67 1019.81 1019.92 1020.03 1020.13 1020.22 1020.29 1020.34 1020.35 1020.34 1020.30 1020.25 1020.20
1010.73 1011.13 1011.61 1012.18 1012.82 1013.48 1014.13 1014.72 1015.21 1015.60 1015.90 1016.12 1016.30 1016.48 1016.66 1016.86 1017.08 1017.32 1017.56 1017.80 1018.03 1018.25 1018.47 1018.69 1018.91 1019.12 1019.33 1019.54 1019.72 1019.89 1020.05 1020.19 1020.33 1020.46 1020.58 1020.67 1020.74 1020.77 1020.77 1020.74 1020.70 1020.65 1020.61
1010.68 1011.21 1011.78 1012.41 1013.06 1013.71 1014.32 1014.86 1015.33 1015.72 1016.04 1016.29 1016.52 1016.72 1016.93 1017.13 1017.34 1017.55 1017.76 1017.98 1018.20 1018.44 1018.69 1018.94 1019.20 1019.46 1019.70 1019.92 1020.12 1020.30 1020.46 1020.62 1020.76 1020.90 1021.01 1021.10 1021.14 1021.15 1021.12 1021.07 1021.01 1020.96 1020.93
1010.83 1011.46 1012.11 1012.76 1013.39 1013.99 1014.54 1015.02 1015.45 1015.81 1016.14 1016.43 1016.70 1016.95 1017.18 1017.40 1017.60 1017.80 1017.99 1018.19 1018.41 1018.65 1018.93 1019.22 1019.51 1019.81 1020.08 1020.32 1020.54 1020.72 1020.89 1021.04 1021.18 1021.30 1021.40 1021.46 1021.48 1021.45 1021.39 1021.31 1021.24 1021.19 1021.18
1011.14 1011.83 1012.52 1013.17 1013.76 1014.29 1014.76 1015.17 1015.53 1015.88 1016.21 1016.54 1016.86 1017.17 1017.45 1017.70 1017.92 1018.11 1018.29 1018.47 1018.68 1018.93 1019.21 1019.52 1019.84 1020.16 1020.45 1020.71 1020.93 1021.11 1021.28 1021.42 1021.54 1021.65 1021.72 1021.76 1021.74 1021.69 1021.60 1021.51 1021.43 1021.38 1021.39
1011.51 1012.23 1012.93 1013.57 1014.11 1014.57 1014.96 1015.29 1015.61 1015.93 1016.28 1016.65 1017.04 1017.41 1017.76 1018.06 1018.30 1018.50 1018.67 1018.84 1019.04 1019.27 1019.55 1019.85 1020.18 1020.49 1020.78 1021.04 1021.25 1021.42 1021.57 1021.70 1021.81 1021.90 1021.95 1021.97 1021.94 1021.88 1021.79 1021.69 1021.62 1021.59 1021.61
1011.82 1012.57 1013.27 1013.88 1014.38 1014.78 1015.10 1015.38 1015.66 1015.98 1016.35 1016.78 1017.23 1017.68 1018.10 1018.45 1018.73 1018.95 1019.12 1019.28 1019.45 1019.66 1019.91 1020.20 1020.50 1020.79 1021.06 1021.29 1021.48 1021.64 1021.76 1021.87 1021.97 1022.05 1022.10 1022.12 1022.10 1022.04 1021.97 1021.89 1021.84 1021.83 1021.87
1012.00 1012.75 1013.44 1014.04 1014.52 1014.89 1015.18 1015.43 1015.71 1016.04 1016.44 1016.92 1017.43 1017.96 1018.44 1018.85 1019.17 1019.41 1019.59 1019.74 1019.89 1020.06 1020.27 1020.52 1020.78 1021.04 1021.27 1021.47 1021.62 1021.75 1021.85 1021.94 1022.03 1022.11 1022.17 1022.20 1022.21 1022.19 1022.15 1022.11 1022.09 1022.11 1022.17
1011.98 1012.73 1013.43 1014.03 1014.52 1014.89 1015.18 1015.45 1015.74 1016.09 1016.53 1017.05 1017.62 1018.20 1018.73 1019.19 1019.55 1019.81 1020.00 1020.14 1020.27 1020.42 1020.60 1020.80 1021.02 1021.23 1021.42 1021.58 1021.70 1021.79 1021.87 1021.94 1022.02 1022.10 1022.18 1022.25 1022.29 1022.32 1022.33 1022.34 1022.36 1022.41 1022.49
1011.76 1012.51 1013.22 1013.85 1014.38 1014.79 1015.13 1015.43 1015.75 1016.13 1016.60 1017.16 1017.75 1018.36 1018.93 1019.42 1019.81 1020.09 1020.29 1020.44 1020.57 1020.70 1020.85 1021.03 1021.21 1021.38 1021.53 1021.65 1021.74 1021.80 1021.86 1021.91 1021.98 1022.06 1022.16 1022.25 1022.34 1022.41 1022.48 1022.53 1022.60 1022.67 1022.77
1011.38 1012.12 1012.86 1013.54 1014.13 1014.61 1015.01 1015.37 1015.75 1016.16 1016.65 1017.21 1017.81 1018.42 1018.99 1019.49 1019.89 1020.20 1020.42 1020.58 1020.72 1020.86 1021.02 1021.18 1021.35 1021.51 1021.64 1021.73 1021.80 1021.83 1021.86 1021.89 1021.94 1022.02 1022.11 1022.22 1022.33 1022.44 1022.55 1022.65 1022.74 1022.84 1022.94
1010.90 1011.64 1012.40 1013.14 1013.80 1014.37 1014.86 1015.29 1015.72 1016.16 1016.65 1017.19 1017.77 1018.34 1018.89 1019.38 1019.78 1020.11 1020.36 1020.56 1020.73 1020.91 1021.08 1021.27 1021.45 1021.61 1021.74 1021.84 1021.88 1021.90 1021.90 1021.90 1021.92 1021.97 1022.04 1022.14 1022.25 1022.38 1022.50 1022.62 1022.74 1022.86 1022.97
1010.40 1011.12 1011.91 1012.69 1013.43 1014.09 1014.68 1015.19 1015.66 1016.13 1016.61 1017.11 1017.63 1018.15 1018.65 1019.11 1019.51 1019.85 1020.13 1020.37 1020.60 1020.83 1021.05 1021.28 1021.50 1021.70 1021.85 1021.95 1022.00 1022.00 1021.98 1021.94 1021.92 1021.91 1021.94 1022.00 1022.09 1022.20 1022.32 1022.45 1022.57 1022.70 1022.81
1009.97 1010.65 1011.44 1012.26 1013.07 1013.81 1014.48 1015.06 1015.58 1016.06 1016.51 1016.97 1017.42 1017.88 1018.32 1018.74 1019.12 1019.47 1019.78 1020.08 1020.36 1020.65 1020.94 1021.22 1021.50 1021.74 1021.92 1022.05 1022.11 1022.10 1022.06 1021.98 1021.90 1021.83 1021.80 1021.80 1021.84 1021.91 1022.01 1022.13 1022.25 1022.37 1022.49
1009.65 1010.27 1011.04 1011.88 1012.73 1013.54 1014.28 1014.92 1015.48 1015.96 1016.39 1016.79 1017.18 1017.57 1017.95 1018.32 1018.68 1019.03 1019.37 1019.71 1020.05 1020.39 1020.74 1021.08 1021.41 1021.69 1021.93 1022.08 1022.16 1022.15 1022.09 1021.97 1021.83 1021.70 1021.60 1021.53 1021.51 1021.54 1021.61 1021.71 1021.82 1021.94 1022.06
1009.45 1010.01 1010.72 1011.55 1012.43 1013.28 1014.07 1014.76 1015.35 1015.84 1016.25 1016.61 1016.94 1017.26 1017.59 1017.92 1018.26 1018.61 1018.96 1019.32 1019.69 1020.07 1020.46 1020.85 1021.21 1021.54 1021.81 1022.00 1022.10 1022.10 1022.02 1021.88 1021.70 1021.51 1021.34 1021.22 1021.14 1021.13 1021.17 1021.25 1021.36 1021.48 1021.59
1009.38 1009.84 1010.49 1011.29 1012.17 1013.04 1013.86 1014.59 1015.20 1015.70 1016.10 1016.43 1016.73 1017.01 1017.29 1017.59 1017.91 1018.24 1018.59 1018.95 1019.33 1019.72 1020.13 1020.53 1020.91 1021.27 1021.56 1021.77 1021.89 1021.91 1021.84 1021.68 1021.48 1021.25 1021.04 1020.88 1020.77 1020.73 1020.76 1020.83 1020.93 1021.05 1021.17
1009.40 1009.76 1010.34 1011.09 1011.94 1012.82 1013.65 1014.40 1015.04 1015.55 1015.95 1016.27 1016.55 1016.81 1017.07 1017.35 1017.64 1017.96 1018.29 1018.64 1018.99 1019.37 1019.75 1020.14 1020.52 1020.87 1021.18 1021.41 1021.55 1021.59 1021.53 1021.38 1021.18 1020.94 1020.72 1020.54 1020.43 1020.39 1020.41 1020.49 1020.61 1020.73 1020.84
1009.45 1009.74 1010.25 1010.94 1011.76 1012.61 1013.45 1014.21 1014.86 1015.39 1015.80 1016.14 1016.42 1016.67 1016.93 1017.20 1017.48 1017.77 1018.07 1018.39 1018.70 1019.03 1019.37 1019.72 1020.07 1020.41 1020.71 1020.95 1021.11 1021.17 1021.14 1021.01 1020.83 1020.61 1020.41 1020.25 1020.15 1020.12 1020.17 1020.27 1020.41 1020.54 1020.66
1009.52 1009.75 1010.20 1010.85 1011.61 1012.44 1013.26 1014.01 1014.67 1015.22 1015.66 1016.01 1016.31 1016.59 1016.86 1017.13 1017.40 1017.68 1017.95 1018.22 1018.49 1018.75 1019.03 1019.32 1019.63 1019.93 1020.21 1020.46 1020.63 1020.72 1020.71 1020.63 1020.48 1020.30 1020.13 1020.00 1019.94 1019.96 1020.04 1020.17 1020.33 1020.49 1020.61
1009.59 1009.80 1010.21 1010.80 1011.52 1012.31 1013.09 1013.83 1014.49 1015.05 1015.51 1015.90 1016.23 1016.54 1016.84 1017.13 1017.41 1017.67 1017.92 1018.15 1018.36 1018.57 1018.78 1019.01 1019.26 1019.52 1019.78 1020.01 1020.19 1020.30 1020.33 1020.27 1020.17 1020.03 1019.90 1019.82 1019.81 1019.86 1019.99 1020.16 1020.35 1020.53 1020.66
1009.68 1009.89 1010.28 1010.83 1011.50 1012.24 1012.98 1013.69 1014.33 1014.89 1015.38 1015.80 1016.17 1016.52 1016.85 1017.17 1017.47 1017.74 1017.97 1018.17 1018.34 1018.49 1018.65 1018.82 1019.02 1019.24 1019.47 1019.69 1019.86 1019.98 1020.02 1020.00 1019.93 1019.83 1019.74 1019.70 1019.72 1019.82 1019.98 1020.19 1020.41 1020.61 1020.76
1009.82 1010.05 1010.43 1010.95 1011.57 1012.25 1012.94 1013.61 1014.23 1014.78 1015.28 1015.72 1016.14 1016.53 1016.90 1017.26 1017.58 1017.87 1018.10 1018.29 1018.43 1018.55 1018.66 1018.79 1018.94 1019.12 1019.32 1019.51 1019.67 1019.79 1019.84 1019.83 1019.77 1019.69 1019.63 1019.61 1019.66 1019.78 1019.97 1020.21 1020.46 1020.68 1020.85
Thickness
5758 5760 5758 5757 5756 5754 5753 5752 5751 5750 5750 5750 5750 5750 5749 5749 5748 5747 5746 5745 5743 5742 5740 5738 5737 5735 5734 5732 5730 5728 5727 5726 5724 5723 5723 5722 5721 5720 5719 5718 5717 5716 5715
5761 5758 5756 5755 5753 5751 5750 5749 5748 5747 5747 5747 5747 5747 5746 5746 5745 5744 5743 5742 5740 5739 5737 5735 5734 5732 5730 5728 5727 5725 5724 5722 5721 5720 5719 5718 5718 5717 5716 5714 5713 5712 5711
5758 5755 5753 5751 5750 5748 5747 5746 5745 5744 5744 5744 5744 5744 5743 5743 5742 5741 5740 5738 5737 5735 5734 5732 5730 5729 5727 5725 5724 5722 5721 5719 5718 5716 5716 5715 5714 5713 5712 5711 5710 5709 5708
5754 5752 5750 5748 5747 5745 5744 5743 5742 5741 5741 5741 5741 5740 5740 5739 5738 5737 5736 5735 5733 5732 5730 5728 5727 5725 5724 5722 5721 5720 5718 5716 5715 5714 5713 5712 5711 5710 5709 5707 5706 5705 5703
5750 5748 5746 5745 5743 5742 5741 5740 5739 5738 5737 5737 5737 5737 5736 5736 5735 5734 5732 5731 5729 5728 5726 5724 5723 5722 5720 5719 5718 5716 5715 5713 5712 5711 5710 5709 5708 5707 5705 5704 5702 5700 5699
5745 5744 5742 5741 5739 5738 5738 5736 5735 5735 5734 5734 5734 5733 5733 5732 5731 5729 5728 5727 5725 5723 5722 5721 5719 5718 5717 5716 5715 5713 5711 5710 5708 5707 5706 5705 5704 5703 5701 5699 5698 5696 5695
5740 5739 5737 5736 5735 5735 5734 5733 5732 5732 5731 5730 5730 5729 5729 5728 5727 5725 5724 5723 5721 5720 5718 5717 5716 5714 5714 5713 5711 5709 5708 5706 5705 5704 5703 5702 5701 5700 5698 5696 5694 5692 5690
5735 5733 5732 5731 5731 5731 5730 5730 5729 5728 5728 5727 5727 5726 5725 5724 5723 5721 5720 5719 5718 5716 5715 5714 5712 5711 5710 5709 5708 5706 5704 5703 5701 5700 5700 5698 5697 5696 5694 5692 5690 5688 5686
5729 5728 5727 5726 5726 5726 5726 5726 5726 5725 5724 5724 5723 5722 5721 5720 5719 5718 5717 5716 5714 5713 5711 5710 5709 5708 5707 5706 5705 5703 5702 5700 5698 5697 5696 5695 5694 5692 5690 5688 5687 5684 5682
5722 5722 5722 5722 5722 5722 5722 5722 5722 5721 5721 5720 5719 5718 5717 5716 5715 5714 5713 5712 5711 5709 5708 5707 5706 5705 5704 5703 5702 5700 5699 5697 5696 5694 5693 5692 5690 5689 5687 5685 5683 5680 5678
5714 5716 5718 5718 5718 5718 5718 5718 5717 5717 5717 5716 5715 5715 5714 5713 5712 5710 5709 5709 5707 5706 5705 5704 5703 5702 5701 5700 5698 5697 5696 5695 5693 5692 5690 5689 5687 5686 5684 5681 5679 5676 5674
5710 5712 5714 5715 5715 5715 5715 5714 5713 5713 5712 5712 5711 5711 5710 5709 5708 5707 5706 5705 5704 5703 5701 5701 5699 5698 5698 5696 5695 5694 5693 5691 5690 5689 5687 5686 5684 5682 5680 5678 5675 5673 5670
5709 5709 5710 5711 5712 5712 5711 5710 5710 5709 5709 5708 5708 5707 5706 5705 5704 5703 5702 5701 5700 5699 5698 5697 5696 5695 5694 5693 5692 5691 5690 5688 5687 5686 5684 5683 5681 5679 5677 5674 5671 5669 5666
5704 5706 5708 5708 5708 5708 5708 5707 5707 5706 5706 5705 5704 5704 5703 5701 5700 5700 5699 5698 5697 5696 5695 5693 5692 5692 5691 5690 5689 5688 5686 5685 5684 5683 5681 5680 5678 5676 5673 5671 5668 5665 5662
5701 5704 5705 5706 5706 5705 5705 5704 5704 5704 5703 5703 5702 5701 5700 5699 5698 5697 5696 5695 5694 5693 5692 5690 5689 5688 5687 5687 5686 5685 5684 5682 5681 5680 5678 5676 5674 5672 5670 5667 5664 5661 5658
5697 5701 5702 5703 5703 5703 5702 5702 5701 5701 5701 5700 5699 5698 5698 5697 5696 5694 5693 5691 5691 5690 5689 5688 5686 5685 5684 5683 5682 5682 5681 5679 5678 5676 5675 5673 5671 5668 5666 5664 5661 5658 5655
5694 5697 5699 5700 5700 5699 5699 5698 5698 5698 5698 5697 5697 5696 5695 5694 5693 5692 5690 5689 5688 5687 5685 5684 5682 5681 5680 5679 5679 5678 5677 5676 5674 5673 5671 5670 5667 5665 5662 5660 5657 5654 5651
5689 5691 5693 5696 5696 5696 5696 5695 5695 5695 5694 5694 5694 5693 5692 5691 5690 5689 5687 5686 5685 5683 5682 5680 5678 5676 5676 5675 5674 5674 5673 5672 5671 5670 5668 5666 5664 5662 5659 5656 5653 5650 5647
5684 5687 5688 5690 5691 5691 5692 5691 5691 5690 5691 5691 5690 5689 5688 5688 5687 5686 5684 5683 5681 5679 5678 5676 5674 5672 5671 5670 5669 5669 5668 5668 5667 5666 5664 5663 5660 5658 5655 5652 5649 5645 5642
5679 5681 5683 5685 5686 5686 5685 5685 5684 5684 5685 5685 5686 5685 5684 5683 5683 5682 5680 5678 5677 5675 5673 5671 5669 5668 5666 5665 5664 5663 5663 5663 5662 5661 5660 5658 5656 5653 5650 5647 5644 5640 5637
5671 5674 5676 5679 5680 5681 5680 5678 5677 5677 5678 5679 5680 5680 5680 5679 5678 5677 5675 5673 5672 5670 5668 5666 5664 5662 5660 5658 5656 5654 5656 5657 5656 5656 5654 5652 5649 5647 5644 5641 5637 5634 5631
5664 5668 5671 5673 5675 5677 5677 5676 5675 5673 5672 5673 5673 5673 5674 5674 5673 5672 5670 5668 5666 5664 5662 5660 5658 5655 5653 5651 5648 5644 5643 5646 5648 5649 5647 5645 5642 5639 5636 5633 5630 5627 5624
5658 5662 5665 5667 5670 5671 5671 5669 5667 5665 5665 5664 5665 5666 5667 5667 5667 5666 5664 5662 5660 5659 5656 5655 5652 5649 5646 5644 5642 5638 5634 5634 5636 5640 5638 5636 5633 5630 5627 5624 5622 5619 5615
5653 5657 5660 5662 5663 5665 5665 5664 5663 5662 5661 5661 5661 5661 5660 5660 5659 5658 5657 5655 5653 5651 5650 5648 5646 5644 5641 5637 5635 5634 5632 5630 5626 5627 5628 5626 5623 5620 5617 5614 5611 5608 5605
5645 5648 5652 5654 5656 5658 5658 5658 5657 5657 5657 5655 5654 5653 5652 5652 5652 5651 5650 5648 5646 5645 5643 5641 5639 5637 5634 5632 5629 5626 5624 5622 5620 5616 5617 5616 5612 5609 5607 5604 5601 5598 5595
5636 5639 5642 5644 5646 5648 5650 5650 5650 5649 5648 5646 5645 5644 5644 5643 5643 5643 5642 5640 5639 5637 5636 5634 5632 5629 5627 5625 5622 5619 5617 5614 5612 5609 5608 5608 5604 5600 5596 5593 5590 5587 5585